Location: Newark
(16.3678°N, 77.8722°E)
Time: 15:03:23
(UTC+00:00)

Tiros 1 - Pass Details

Date: 10 December 2019
Orbit: 630 x 664 km, 48.4° (Epoch: 26 January)

Event Time Altitude Azimuth Distance (km) Brightness Sun altitude
Rises 21:44:25 0° 197° (SSW) 2,977 - -46.6°
Reaches altitude 10° 21:47:05 10° 184° (S) 2,062 - -46.0°
Maximum altitude 21:51:01 26° 128° (SE) 1,286 - -45.1°
Drops below altitude 10° 21:54:57 10° 72° (ENE) 2,050 - -44.2°
Exits shadow 21:57:31 - 59° (ENE) 2,932 11.0 -43.6°
Sets 21:57:34 0° 59° (ENE) 2,955 11.0 -43.5°
